Regional Weather Roundup
Issued by NWS

Home | Current Version | Previous Version | Text Only | Print | Product List | Glossary On
Versions: 1 2 3 4 5 6 7 8 9 10 11 12 13 14 15 16 17 18 19 20 21 22 23 24 25 26 27 28 29 30 31 32 33 34 35 36 37 38 39 40 41 42 43 44 45 46 47 48 49 50
000
ASUS43 KLOT 290208
RWRIL

ILLINOIS REGIONAL WEATHER ROUNDUP
NATIONAL WEATHER SERVICE CHICAGO/ROMEOVILLE IL
900 PM CDT TUE MAR 28 2017

NOTE: "FAIR" INDICATES FEW OR NO CLOUDS BELOW 12,000 FEET WITH NO
SIGNIFICANT WEATHER AND/OR OBSTRUCTIONS TO VISIBILITY.

* THESE STATIONS ARE NOT UNDER NWS QUALITY CONTROL. THEY ALSO MAY NOT
  REPORT WEATHER SUCH AS PRECIPITATION OR FOG.

ILZ001-002-007-009-015-016-024-290300-
NORTHWEST ILLINOIS

CITY           SKY/WX    TMP DP  RH WIND       PRES   REMARKS
MOLINE         CLOUDY    46  39  76 E6        30.17R
STERLING*      CLEAR     42  40  92 CALM      30.19R
SAVANNA*       CLEAR     40  38  93 CALM      30.19R
$$

ILZ003-004-008-010-011-017-018-290300-
NORTH CENTRAL ILLINOIS

CITY           SKY/WX    TMP DP  RH WIND       PRES   REMARKS
ROCKFORD       CLEAR     45  36  70 NE6       30.21R
FREEPORT*      CLEAR     39  35  86 E7        30.19R WCI  34
ROCHELLE*      CLEAR     42  38  84 E5        30.20R
DE KALB*       CLEAR     39  34  81 E5        30.19R
PERU*          CLOUDY    45  40  82 E5        30.18R
$$

ILZ005-006-012>014-019>023-290300-
NORTHEAST ILLINOIS

CITY           SKY/WX    TMP DP  RH WIND       PRES   REMARKS
CHICAGO-OHARE  CLOUDY    41  36  82 NE8       30.19R
CHICAGO-MIDWAY CLOUDY    43  38  82 N8        30.19R
AURORA         CLEAR     41  35  79 E8        30.19R
LANSING*       CLOUDY    39  38  97 NE6       30.20R WCI  35
JOLIET*        CLOUDY    44  39  83 E9        30.20R
WAUKEGAN       FOG       35  35 100 NE8       30.21R VSB 1/4 WCI  29
DUPAGE AIRPORT MOCLDY    40  38  93 NE5       30.18R
KANKAKEE*      CLOUDY    42  37  85 NE8       30.20R
WHEELING       CLOUDY    36  36 100 NE7       30.22R WCI  30
MORRIS*        CLEAR     41  37  86 CALM      30.19R
ROMEOVILLE*    CLOUDY    42  39  89 E8        30.20R
NORTHERLY ISL    N/A     37  35  92 N10         N/A  WCI  30
$$

LMZ740>746-290300-
SOUTHERN LAKE MICHIGAN

STATION/POSITION SKY/WX   TEMP    WIND        PRES    VSBY  WAVE
                          AIR SEA DIR/SP/G                  HT/PER
                          (F)     (DEG/KT/KT) (MB)    (MI)  (FT/S)
HARRISON CRIB              37     360/ 10/ 11   N/A
BURNHAM HARBOR             37     340/  7/ 12   N/A
CALUMET HARBOR             37     350/  8/ 11 1021.7
BURNS HARBOR               39      40/  7/  8 1023.0R
MICHIGAN CITY              38      30/  8/  8   N/A
$$

ILZ025>027-034>036-040-047-049-050-058-095>099-290300-
WEST-CENTRAL ILLINOIS

CITY           SKY/WX    TMP DP  RH WIND       PRES   REMARKS
QUINCY         CLOUDY    52  47  83 E9        30.12R
GALESBURG*     CLOUDY    46  41  81 NE8       30.17R
MACOMB*        CLOUDY    49  45  85 E10       30.18R
JACKSONVILLE*  CLOUDY    51  47  86 NE7       30.14R
PITTSFIELD*    CLOUDY    52  48  84 NE7       30.13S
$$

ILZ028>032-037-038-041>044-048-051>054-059>061-290300-
CENTRAL ILLINOIS

CITY           SKY/WX    TMP DP  RH WIND       PRES   REMARKS
PONTIAC        PTCLDY    43  42  96 E8        30.19R
BLOOMINGTON    CLOUDY    45  40  82 NE14      30.17R
DECATUR        CLOUDY    49  42  77 NE14      30.15R
PEORIA         CLOUDY    47  41  80 NE13      30.16R
LACON*         CLOUDY    46  41  81 NE5       30.16F
LINCOLN*       CLOUDY    49  45  85 NE10      30.16R
SPRINGFIELD    CLOUDY    53  45  74 NE13G18   30.15R
TAYLORVILLE    CLOUDY    52  46  82 NE8       30.14R
$$

ILZ033-039-045-046-055>057-062-063-290300-
EAST-CENTRAL ILLINOIS

CITY           SKY/WX    TMP DP  RH WIND       PRES   REMARKS
CHAMPAIGN      CLOUDY    47  39  74 NE12      30.15R
RANTOUL*       CLOUDY    46  41  82 NE13      30.16S
MATTOON        CLOUDY    50  44  80 NE13      30.12R
PARIS*         CLOUDY    48  43  82 N9        30.15S
$$

ILZ079-100>102-290300-
SOUTHWEST ILLINOIS

CITY           SKY/WX    TMP DP  RH WIND       PRES   REMARKS
ALTON          CLOUDY    54  48  82 NE6       30.11R
BELLEVILLE     CLOUDY    56  49  78 NE6       30.08R
CAHOKIA*       CLOUDY    56  47  71 NE6       30.09R
SPARTA*        CLOUDY    54  49  83 CALM      30.09R
$$

ILZ064>066-069>071-074>076-080>082-084>086-088>090-092>094-290300-
SOUTH-CENTRAL ILLINOIS

CITY           SKY/WX    TMP DP  RH WIND       PRES   REMARKS
CARBONDALE     CLOUDY    55  50  83 N3        30.08R
CAIRO*         CLOUDY    57  51  80 N7        30.06R
EFFINGHAM*     CLOUDY    55  48  76 CALM      30.12R
MARION         CLOUDY    57  52  82 CALM      30.09R
MT. VERNON     CLOUDY    58  49  72 NE9       30.09R
CENTRALIA*     CLOUDY    57  50  77 NE6       30.09R
SALEM*         CLOUDY    57  48  72 NE6       30.10R
METROPOLIS*    CLOUDY    58  53  82 NE3       30.07R
$$

ILZ067-068-072-073-078-083-087-091-290300-
SOUTHEAST ILLINOIS

CITY           SKY/WX    TMP DP  RH WIND       PRES   REMARKS
LAWRENCEVILLE  MOCLDY    56  50  80 NE9       30.10R
FLORA*         CLOUDY    58  49  71 NE6       30.10R
FAIRFIELD*     MOCLDY    56  50  81 N3        30.08R
HARRISBURG*    CLOUDY    56  52  86 N3        30.08R
ROBINSON*      CLOUDY    55  48  79 NE7       30.12R
CARMI*         PTCLDY    53  51  90 NE6       30.08R
$$

ABBREVIATIONS USED IN REMARKS
   TC - TEMPERATURE IN CELSIUS
  WCI - WIND CHILL INDEX
   HX - HEAT INDEX
  VSB - VISIBILITY
$$





USA.gov is the U.S. government's official web portal to all federal, state and local government web resources and services.